Flag for USA

Past Weather in Wellton, Arizona, USA — Yesterday and Last 2 Weeks

Now
93 °F

Sunny.


Feels Like: 89 °F
Forecast: 106 / 73 °F
Wind: No wind

Location: Yuma Marine Corps Air Station
Current Time: Sep 24, 2020 at 10:19:19 am
Latest Report: Sep 24, 2020 at 9:57 am
Visibility: 7 mi
Pressure29.85 "Hg
Humidity: 16%
Dew Point: 41 °F
Location of WelltonLocation

Past Weather in Wellton — Graph

°F

Wellton Temperature Yesterday

Maximum temperature yesterday: 103 °F (at 2:57 pm)
Minimum temperature yesterday: 75 °F (at 6:57 am)
Average temperature yesterday: 89 °F

High & Low Weather Summary for the Past Weeks

 TemperatureHumidityPressure
High112 °F (Sep 17, 1:57 pm)62% (Sep 18, 5:57 am)29.99 "Hg (Sep 18, 5:57 am)
Low69 °F (Sep 12, 4:57 am)6% (Sep 17, 12:57 pm)29.66 "Hg (Sep 19, 4:57 pm)
Average89 °F24%29.82 "Hg
* Reported Sep 9 8:57 am — Sep 24 8:57 am, Wellton. Weather by CustomWeather, © 2020

Note: Actual official high and low records may vary slightly from our data, if they occured in-between our weather recording intervals... More about our weather records

Wellton Weather History for the Previous 24 Hours

Scroll right to see more
 ConditionsComfort  
Time TempWeatherWind HumidityBarometerVisibility
8:57 am
Thu, Sep 24
87 °FSunny.No wind23%29.84 "Hg7 mi
7:57 am82 °FSunny.No wind25%29.83 "Hg7 mi
6:57 am76 °FSunny.No wind35%29.81 "Hg7 mi
6:39 am75 °FSunny.No wind33%29.82 "Hg1 mi
6:35 am74 °FSunny.No wind36%29.82 "Hg2 mi
5:57 am75 °FHaze.No wind32%29.80 "Hg4 mi
4:57 am76 °FClear.No wind35%29.79 "Hg10 mi
3:57 am78 °FClear.No wind28%29.79 "Hg10 mi
2:57 am78 °FClear.No wind30%29.80 "Hg10 mi
1:57 am80 °FClear.3 mph26%29.80 "Hg10 mi
12:57 am82 °FClear.No wind25%29.81 "Hg10 mi
11:57 pm
Wed, Sep 23
83 °FClear.No wind19%29.82 "Hg10 mi
10:57 pm85 °FPassing clouds.6 mph20%29.83 "Hg7 mi
9:57 pm85 °FPassing clouds.3 mph21%29.83 "Hg7 mi
8:57 pm89 °FPassing clouds.No wind16%29.82 "Hg7 mi
7:57 pm94 °FClear.6 mph14%29.82 "Hg7 mi
6:57 pm96 °FClear.6 mph14%29.81 "Hg7 mi
5:57 pm101 °FSunny.6 mph11%29.81 "Hg7 mi
3:57 pm103 °FSunny.8 mph11%29.83 "Hg7 mi
2:57 pm103 °FSunny.5 mph11%29.84 "Hg7 mi
1:57 pm102 °FSunny.5 mph13%29.86 "Hg7 mi
12:57 pm102 °FSunny.6 mph14%29.89 "Hg7 mi
11:57 am99 °FSunny.9 mph15%29.91 "Hg7 mi
10:57 am96 °FSunny.8 mph19%29.93 "Hg7 mi
Weather by CustomWeather, © 2020

See weather overview